Regional Weather Roundup
Issued by NWS

Home | Current Version | Previous Version | Graphics & Text | Print | Product List | Glossary Off
Versions: 1 2 3 4 5 6 7 8 9 10 11 12 13 14 15 16 17 18 19 20 21 22 23 24 25 26 27 28 29 30 31 32 33 34 35 36 37 38 39 40 41 42 43 44 45 46 47 48 49 50

000
ASUS43 KDMX 222008
RWRIA

WEATHER ROUNDUP FOR IOWA
NATIONAL WEATHER SERVICE DES MOINES IA
300 PM CDT FRI JUL 22 2016

NOTE: "FAIR" INDICATES FEW OR NO CLOUDS BELOW 12,000 FEET WITH NO
SIGNIFICANT WEATHER AND/OR OBSTRUCTIONS TO VISIBILITY.

* - THESE STATIONS ARE NOT NWS STATIONS...THUS NOT UNDER NWS
QUALITY CONTROL.  THEY ALSO DO NOT REPORT WEATHER SUCH
AS PRECIPITATION OR FOG.

IAZ001>003-012>014-020>022-031>034-043>046-222100-
   NORTHWEST IOWA

CITY           SKY/WX    TMP DP  RH WIND       PRES   REMARKS
CARROLL *      SUNNY     90  79  70 S13       29.96F HX 105
CHEROKEE *     MOSUNNY   90  80  71 SE8       29.96F HX 108
DENISON *      SUNNY     90  79  70 S9G16     29.94F HX 105
LE MARS *      MOSUNNY   93  81  66 SE10      29.94F HX 113
SHELDON *      MOSUNNY   90  82  79 E9        29.96F HX 111
SIOUX CITY     SUNNY     95  77  55 SE13      29.93F HX 109
SPENCER        PTSUNNY   88  78  72 SE9       29.98F HX 101
STORM LAKE *   SUNNY     90  79  70 SE7       29.98F HX 105
$$

IAZ055>058-069>071-079>083-090>094-222100-
   SOUTHWEST IOWA

CITY           SKY/WX    TMP DP  RH WIND       PRES   REMARKS
ATLANTIC *     MOSUNNY   90  79  70 S15       29.97S HX 105
CLARINDA *       N/A     90  77  66 MISG      29.99F HX 102
COUNCIL BLFS * SUNNY     90  79  70 S16       29.95F HX 105
CRESTON *      CLOUDY    88  77  70 S16G22    30.01F HX 100
HARLAN  *      PTSUNNY   88  79  74 S15       29.99F HX 102
LAMONI         MOSUNNY   86  76  71 SW17      29.98F HX  96
RED OAK *      SUNNY     90  79  70 S16       29.96F HX 105
SHENANDOAH *   SUNNY     91  81  70 S12G23    29.96F HX 110
$$

IAZ047>049-059>061-072>074-084-222100-
   CENTRAL IOWA

CITY           SKY/WX    TMP DP  RH WIND       PRES   REMARKS
AMES           MOSUNNY   89  79  72 SW9       29.98F HX 104
ANKENY *         N/A    N/A N/A N/A MISG        N/A
BOONE *        SUNNY     88  77  70 SW9       29.98F HX 100
CHARITON *       N/A    N/A N/A N/A MISG        N/A
DES MOINES     CLOUDY    91  75  59 SW13      29.97F HX 101
GRINNELL*      CLOUDY    85  73  68 S6        30.02F HX  92
KNOXVILLE *    MOSUNNY   86  75  70 S7G15     29.98F HX  95
MARSHALLTOWN   CLOUDY    86  78  77 SW7       29.99F HX  98
NEWTON *       CLOUDY    86  79  79 SW3       29.99F HX  99
PELLA *        CLOUDY    89  75  65 CALM      30.01R HX  99
PERRY *          N/A     89  81  76 S7        29.98F HX 107
$$

IAZ004>006-015-016-023>025-035-036-222100-
   NORTH CENTRAL IOWA

CITY           SKY/WX    TMP DP  RH WIND       PRES   REMARKS
ALGONA *       MOSUNNY   86  79  79 VRB3      29.99F HX  99
ESTHERVILLE    CLOUDY    83  79  88 E8        29.99F HX  94
FORT DODGE *   MOSUNNY   90  79  70 S9        29.97F HX 105
MASON CITY     CLOUDY    86  77  74 E3        30.00F HX  97
FOREST CITY *  CLOUDY    86  77  74 E5        29.99F HX  97
IOWA FALLS *     N/A     89  78  68 S7        30.00F HX 103
$$

IAZ007>011-017>019-026>030-037>042-050>054-066-222100-
   NORTHEAST IOWA

CITY           SKY/WX    TMP DP  RH WIND       PRES   REMARKS
CEDAR RAPIDS   PTSUNNY   86  79  79 W7        30.00F HX  99
CHARLES CITY * CLOUDY    86  79  79 CALM      30.01F HX  99
CLINTON *      SUNNY     85  75  72 W3        30.02F HX  93
DECORAH *      CLOUDY    84  77  79 CALM      30.02S HX  94
DUBUQUE        PTSUNNY   84  75  74 VRB3      30.03F HX  92
MONTICELLO *   SUNNY     86  77  74 CALM      30.01F HX  97
OELWEIN *      CLOUDY    86  77  74 S5        30.01F HX  97
WATERLOO       PTSUNNY   88  76  67 SW8       29.98F HX  99
$$

IAZ064-065-067-068-078-222100-
   EAST CENTRAL IOWA

CITY           SKY/WX    TMP DP  RH WIND       PRES   REMARKS
DAVENPORT      PTSUNNY   85  74  69 CALM      30.02F HX  92
IOWA CITY      PTSUNNY   86  76  71 VRB5      30.02F HX  96
MT. PLEASANT * MOSUNNY   89  78  68 SW7       30.02S HX 103
MUSCATINE *    MOSUNNY   86  75  70 W7        30.01F HX  95
QUAD CITIES    CLOUDY    87  72  60 CALM      30.01F HX  93
$$

IAZ062-063-075>077-085>089-095>099-222100-
   SOUTHEAST IOWA

CITY           SKY/WX    TMP DP  RH WIND       PRES   REMARKS
BURLINGTON     MOSUNNY   85  77  77 CALM      30.01F HX  95
FAIRFIELD *    MOSUNNY   90  75  62 W8        30.01F HX 100
KEOKUK *       MOSUNNY   86  75  70 W3        30.01F HX  95
CENTERVILLE *    N/A     86  75  70 SW12      30.02F HX  95
OTTUMWA        PTSUNNY   87  73  62 SW8       30.00F HX  94
WASHINGTON *   MOSUNNY   86  77  74 CALM      30.03F HX  97
$$

ABBREVIATIONS USED IN REMARKS
   TC - TEMPERATURES IN CELSIUS
  WCI - WIND CHILL INDEX
   HX - HEAT INDEX
  VSB - VISIBILITY
$$





USA.gov is the U.S. government's official web portal to all federal, state and local government web resources and services.